QPF
0.01 0.03 0.09 0.08 0.07 0.08 0.11 0.13 0.13 0.11 0.08 0.08 0.09 0.06 0.03 0.02 0.03 0.03 0.03 0.04 0.04 0.03 0.03 0.03 0.04 0.04 0.03 0.04 0.06 0.08 0.04 0.04 0.05 0.06 0.07 0.07 0.07 0.05 0.03 0.03 0.04 0.04 0.06
0.01 0.03 0.09 0.11 0.07 0.09 0.16 0.16 0.15 0.17 0.12 0.09 0.08 0.05 0.02 0.02 0.02 0.04 0.05 0.03 0.04 0.03 0.02 0.03 0.04 0.04 0.04 0.04 0.05 0.05 0.03 0.03 0.03 0.04 0.05 0.05 0.06 0.06 0.05 0.04 0.05 0.05 0.08
0.01 0.02 0.06 0.08 0.08 0.15 0.21 0.10 0.10 0.18 0.17 0.10 0.07 0.05 0.03 0.02 0.01 0.03 0.04 0.04 0.04 0.03 0.02 0.03 0.04 0.04 0.04 0.04 0.04 0.04 0.04 0.04 0.03 0.03 0.04 0.02 0.04 0.06 0.06 0.06 0.07 0.08 0.09
0.01 0.02 0.03 0.06 0.09 0.18 0.25 0.11 0.12 0.20 0.19 0.13 0.07 0.05 0.04 0.03 0.02 0.03 0.03 0.05 0.07 0.08 0.06 0.05 0.04 0.04 0.04 0.04 0.05 0.05 0.05 0.06 0.05 0.04 0.02 0.02 0.03 0.07 0.07 0.08 0.08 0.07 0.06
0.02 0.02 0.03 0.06 0.08 0.13 0.24 0.28 0.27 0.25 0.18 0.11 0.07 0.05 0.04 0.04 0.03 0.04 0.03 0.04 0.06 0.08 0.10 0.08 0.06 0.04 0.04 0.05 0.06 0.06 0.05 0.05 0.06 0.05 0.04 0.04 0.04 0.09 0.08 0.06 0.06 0.06 0.06
0.02 0.02 0.02 0.07 0.08 0.10 0.15 0.22 0.24 0.20 0.13 0.10 0.06 0.05 0.05 0.04 0.03 0.03 0.03 0.03 0.03 0.03 0.04 0.06 0.05 0.04 0.04 0.05 0.05 0.06 0.06 0.05 0.03 0.02 0.02 0.04 0.06 0.10 0.09 0.07 0.06 0.07 0.05
0.01 0.01 0.02 0.07 0.08 0.08 0.09 0.10 0.11 0.11 0.09 0.09 0.07 0.06 0.06 0.05 0.04 0.02 0.03 0.02 0.02 0.02 0.03 0.06 0.06 0.03 0.04 0.05 0.06 0.06 0.06 0.04 0.01 0.01 0.01 0.02 0.03 0.06 0.08 0.07 0.06 0.07 0.06
0.01 0.01 0.02 0.06 0.08 0.08 0.09 0.08 0.06 0.07 0.06 0.08 0.09 0.07 0.05 0.05 0.03 0.02 0.02 0.02 0.02 0.01 0.03 0.04 0.03 0.03 0.05 0.08 0.10 0.11 0.11 0.07 0.03 0.02 0.02 0.02 0.04 0.07 0.07 0.06 0.05 0.06 0.06
0.02 0.01 0.02 0.04 0.06 0.07 0.07 0.07 0.06 0.05 0.04 0.06 0.07 0.06 0.03 0.03 0.04 0.04 0.04 0.03 0.02 0.02 0.02 0.03 0.03 0.05 0.07 0.08 0.09 0.11 0.12 0.08 0.05 0.05 0.07 0.07 0.09 0.09 0.07 0.05 0.07 0.08 0.07
0.03 0.02 0.02 0.02 0.02 0.02 0.04 0.07 0.07 0.06 0.04 0.03 0.04 0.04 0.02 0.03 0.03 0.04 0.03 0.03 0.02 0.02 0.03 0.03 0.04 0.06 0.07 0.07 0.07 0.08 0.06 0.05 0.05 0.05 0.07 0.09 0.11 0.12 0.11 0.10 0.10 0.09 0.09
0.02 0.02 0.01 0.02 0.02 0.01 0.02 0.06 0.05 0.03 0.02 0.02 0.02 0.01 0.01 0.01 0.01 0.02 0.03 0.03 0.03 0.04 0.04 0.03 0.05 0.07 0.06 0.06 0.05 0.04 0.05 0.05 0.05 0.05 0.07 0.12 0.13 0.14 0.12 0.12 0.13 0.11 0.09
0.02 0.02 0.02 0.02 0.01 0.01 0.02 0.03 0.03 0.02 0.02 0.01 0.01 0.00 0.00 0.00 0.01 0.02 0.03 0.04 0.04 0.05 0.04 0.04 0.06 0.04 0.04 0.03 0.03 0.02 0.03 0.04 0.04 0.04 0.09 0.12 0.10 0.09 0.09 0.09 0.09 0.07 0.06
0.02 0.03 0.03 0.03 0.03 0.02 0.02 0.03 0.02 0.02 0.01 0.01 0.01 0.00 0.00 0.00 0.01 0.01 0.01 0.02 0.02 0.02 0.02 0.02 0.02 0.01 0.01 0.02 0.02 0.02 0.03 0.03 0.03 0.04 0.09 0.10 0.11 0.10 0.09 0.08 0.06 0.04 0.04
0.02 0.04 0.05 0.04 0.05 0.04 0.04 0.03 0.02 0.01 0.01 0.01 0.01 0.00 0.00 0.01 0.01 0.00 0.00 0.01 0.01 0.01 0.01 0.01 0.00 0.00 0.01 0.01 0.02 0.01 0.02 0.02 0.03 0.05 0.08 0.12 0.14 0.14 0.11 0.08 0.07 0.07 0.05
0.04 0.04 0.04 0.05 0.04 0.04 0.04 0.04 0.04 0.03 0.02 0.02 0.01 0.01 0.01 0.01 0.01 0.01 0.01 0.02 0.02 0.01 0.01 0.01 0.01 0.00 0.00 0.00 0.01 0.01 0.02 0.02 0.03 0.03 0.06 0.10 0.11 0.14 0.14 0.11 0.07 0.04 0.04
0.06 0.05 0.05 0.04 0.05 0.05 0.05 0.06 0.08 0.06 0.03 0.03 0.02 0.02 0.02 0.02 0.02 0.02 0.03 0.02 0.01 0.01 0.02 0.01 0.02 0.02 0.01 0.01 0.01 0.01 0.02 0.01 0.01 0.01 0.02 0.04 0.06 0.08 0.09 0.10 0.06 0.04 0.04
0.07 0.07 0.07 0.07 0.07 0.06 0.05 0.06 0.07 0.07 0.05 0.03 0.03 0.03 0.03 0.03 0.04 0.04 0.03 0.02 0.01 0.01 0.02 0.02 0.03 0.03 0.03 0.02 0.01 0.01 0.01 0.01 0.01 0.01 0.00 0.01 0.01 0.03 0.06 0.08 0.08 0.05 0.05
0.08 0.09 0.09 0.08 0.08 0.07 0.05 0.03 0.03 0.04 0.03 0.03 0.02 0.01 0.02 0.02 0.03 0.04 0.03 0.02 0.01 0.01 0.02 0.02 0.01 0.01 0.02 0.02 0.02 0.02 0.02 0.02 0.01 0.00 0.00 0.00 0.00 0.00 0.03 0.06 0.07 0.06 0.06
0.09 0.10 0.11 0.12 0.11 0.11 0.08 0.05 0.03 0.02 0.02 0.02 0.02 0.02 0.01 0.01 0.02 0.03 0.03 0.02 0.01 0.01 0.01 0.02 0.01 0.01 0.01 0.01 0.01 0.02 0.02 0.02 0.02 0.01 0.00 0.00 0.00 0.00 0.01 0.03 0.04 0.06 0.07
0.06 0.08 0.10 0.11 0.13 0.15 0.13 0.09 0.05 0.03 0.02 0.01 0.01 0.02 0.01 0.01 0.01 0.02 0.02 0.02 0.02 0.01 0.01 0.01 0.01 0.01 0.01 0.02 0.01 0.01 0.01 0.01 0.01 0.01 0.01 0.00 0.00 0.01 0.00 0.01 0.02 0.02 0.05
0.04 0.04 0.05 0.07 0.10 0.14 0.16 0.14 0.08 0.06 0.04 0.02 0.01 0.01 0.01 0.01 0.01 0.01 0.01 0.01 0.01 0.01 0.00 0.00 0.00 0.01 0.01 0.03 0.02 0.01 0.01 0.01 0.01 0.01 0.01 0.01 0.01 0.01 0.01 0.01 0.01 0.01 0.01
0.04 0.03 0.03 0.04 0.06 0.09 0.09 0.12 0.12 0.12 0.09 0.06 0.04 0.01 0.01 0.01 0.01 0.01 0.01 0.01 0.01 0.01 0.01 0.00 0.01 0.01 0.01 0.01 0.02 0.02 0.02 0.02 0.01 0.00 0.01 0.01 0.01 0.01 0.01 0.01 0.01 0.01 0.01
0.02 0.03 0.04 0.03 0.04 0.06 0.08 0.10 0.12 0.11 0.08 0.06 0.05 0.03 0.02 0.02 0.02 0.02 0.01 0.01 0.01 0.00 0.00 0.01 0.01 0.02 0.02 0.02 0.02 0.02 0.02 0.03 0.02 0.01 0.01 0.02 0.01 0.01 0.01 0.01 0.01 0.02 0.01
0.02 0.03 0.04 0.03 0.02 0.03 0.05 0.07 0.10 0.10 0.06 0.04 0.03 0.02 0.03 0.03 0.02 0.02 0.02 0.01 0.01 0.00 0.00 0.00 0.00 0.01 0.02 0.03 0.03 0.03 0.02 0.02 0.02 0.02 0.02 0.02 0.02 0.01 0.01 0.01 0.01 0.02 0.01
0.02 0.02 0.02 0.02 0.02 0.02 0.03 0.05 0.07 0.09 0.09 0.07 0.05 0.04 0.03 0.03 0.02 0.02 0.02 0.01 0.01 0.00 0.00 0.00 0.00 0.01 0.01 0.02 0.03 0.04 0.04 0.02 0.01 0.01 0.02 0.03 0.04 0.04 0.03 0.02 0.02 0.02 0.02
0.01 0.01 0.01 0.02 0.01 0.01 0.03 0.05 0.06 0.06 0.08 0.08 0.06 0.05 0.04 0.04 0.02 0.03 0.03 0.02 0.01 0.00 0.00 0.00 0.00 0.01 0.01 0.01 0.02 0.02 0.05 0.05 0.03 0.02 0.01 0.02 0.04 0.06 0.06 0.05 0.03 0.02 0.02
MSLP
1011.96 1011.46 1011.08 1010.87 1010.83 1010.92 1011.09 1011.27 1011.40 1011.44 1011.39 1011.28 1011.15 1011.04 1011.00 1011.04 1011.14 1011.29 1011.43 1011.55 1011.61 1011.62 1011.59 1011.54 1011.51 1011.49 1011.52 1011.58 1011.66 1011.75 1011.83 1011.90 1011.96 1012.03 1012.10 1012.19 1012.27 1012.34 1012.38 1012.38 1012.35 1012.28 1012.20
1011.93 1011.48 1011.15 1010.98 1010.98 1011.09 1011.26 1011.43 1011.54 1011.57 1011.51 1011.41 1011.30 1011.23 1011.23 1011.30 1011.44 1011.60 1011.76 1011.88 1011.95 1011.96 1011.94 1011.90 1011.86 1011.85 1011.87 1011.91 1011.96 1012.01 1012.05 1012.10 1012.16 1012.23 1012.31 1012.42 1012.52 1012.61 1012.66 1012.66 1012.62 1012.55 1012.46
1011.81 1011.43 1011.16 1011.06 1011.10 1011.24 1011.43 1011.60 1011.70 1011.72 1011.66 1011.57 1011.49 1011.45 1011.48 1011.58 1011.73 1011.90 1012.05 1012.16 1012.21 1012.22 1012.19 1012.16 1012.13 1012.13 1012.15 1012.18 1012.23 1012.27 1012.31 1012.35 1012.41 1012.49 1012.60 1012.72 1012.84 1012.94 1012.99 1013.00 1012.95 1012.88 1012.79
1011.66 1011.35 1011.17 1011.13 1011.23 1011.41 1011.61 1011.78 1011.88 1011.89 1011.83 1011.75 1011.69 1011.67 1011.73 1011.84 1011.99 1012.15 1012.28 1012.36 1012.39 1012.38 1012.35 1012.32 1012.31 1012.33 1012.38 1012.44 1012.50 1012.55 1012.61 1012.67 1012.74 1012.84 1012.97 1013.10 1013.23 1013.33 1013.38 1013.38 1013.33 1013.24 1013.15
1011.52 1011.30 1011.20 1011.24 1011.40 1011.61 1011.82 1011.98 1012.06 1012.05 1011.99 1011.92 1011.86 1011.87 1011.94 1012.06 1012.21 1012.35 1012.45 1012.50 1012.51 1012.48 1012.45 1012.44 1012.46 1012.51 1012.60 1012.69 1012.80 1012.89 1012.98 1013.07 1013.16 1013.28 1013.41 1013.55 1013.67 1013.76 1013.79 1013.77 1013.71 1013.62 1013.52
1011.45 1011.32 1011.30 1011.41 1011.61 1011.84 1012.04 1012.18 1012.23 1012.20 1012.12 1012.04 1012.00 1012.02 1012.11 1012.24 1012.39 1012.52 1012.60 1012.63 1012.62 1012.59 1012.56 1012.56 1012.61 1012.71 1012.84 1012.98 1013.13 1013.27 1013.40 1013.52 1013.64 1013.77 1013.90 1014.02 1014.12 1014.18 1014.19 1014.15 1014.06 1013.96 1013.85
1011.48 1011.42 1011.48 1011.65 1011.87 1012.10 1012.28 1012.38 1012.39 1012.32 1012.22 1012.14 1012.11 1012.15 1012.26 1012.41 1012.57 1012.70 1012.77 1012.80 1012.78 1012.74 1012.72 1012.75 1012.82 1012.96 1013.12 1013.32 1013.50 1013.68 1013.83 1013.98 1014.11 1014.24 1014.36 1014.46 1014.53 1014.56 1014.53 1014.46 1014.35 1014.23 1014.11
1011.59 1011.60 1011.72 1011.93 1012.16 1012.37 1012.52 1012.57 1012.53 1012.43 1012.31 1012.23 1012.22 1012.29 1012.43 1012.61 1012.79 1012.94 1013.02 1013.05 1013.03 1013.00 1012.99 1013.02 1013.12 1013.27 1013.47 1013.68 1013.89 1014.09 1014.25 1014.40 1014.53 1014.65 1014.75 1014.82 1014.86 1014.86 1014.80 1014.69 1014.56 1014.42 1014.29
1011.75 1011.82 1011.99 1012.21 1012.45 1012.63 1012.73 1012.74 1012.66 1012.54 1012.42 1012.36 1012.38 1012.49 1012.67 1012.89 1013.11 1013.27 1013.37 1013.40 1013.39 1013.36 1013.35 1013.40 1013.50 1013.66 1013.86 1014.07 1014.28 1014.47 1014.63 1014.76 1014.87 1014.96 1015.04 1015.09 1015.10 1015.07 1014.99 1014.86 1014.71 1014.55 1014.41
1011.89 1012.01 1012.22 1012.46 1012.69 1012.85 1012.92 1012.89 1012.80 1012.67 1012.57 1012.54 1012.61 1012.77 1013.00 1013.27 1013.51 1013.70 1013.81 1013.85 1013.84 1013.81 1013.81 1013.85 1013.94 1014.09 1014.28 1014.48 1014.66 1014.82 1014.95 1015.06 1015.14 1015.20 1015.25 1015.28 1015.28 1015.23 1015.14 1015.01 1014.85 1014.68 1014.52
1011.96 1012.13 1012.37 1012.62 1012.85 1013.00 1013.06 1013.03 1012.94 1012.84 1012.78 1012.80 1012.93 1013.14 1013.42 1013.72 1013.99 1014.20 1014.32 1014.36 1014.35 1014.32 1014.31 1014.34 1014.43 1014.56 1014.73 1014.89 1015.05 1015.17 1015.26 1015.33 1015.37 1015.41 1015.43 1015.45 1015.44 1015.40 1015.32 1015.19 1015.04 1014.87 1014.69
1011.93 1012.14 1012.41 1012.68 1012.91 1013.06 1013.13 1013.13 1013.08 1013.04 1013.04 1013.13 1013.32 1013.58 1013.90 1014.22 1014.50 1014.71 1014.83 1014.88 1014.87 1014.84 1014.83 1014.86 1014.94 1015.06 1015.20 1015.34 1015.46 1015.55 1015.60 1015.62 1015.63 1015.64 1015.65 1015.66 1015.65 1015.63 1015.57 1015.46 1015.32 1015.15 1014.96
1011.79 1012.04 1012.33 1012.61 1012.85 1013.03 1013.14 1013.19 1013.21 1013.24 1013.33 1013.49 1013.73 1014.05 1014.39 1014.72 1015.00 1015.20 1015.32 1015.36 1015.35 1015.33 1015.33 1015.37 1015.46 1015.58 1015.71 1015.84 1015.94 1016.00 1016.02 1016.01 1015.99 1015.97 1015.97 1015.97 1015.97 1015.96 1015.92 1015.84 1015.72 1015.56 1015.36
1011.57 1011.84 1012.14 1012.43 1012.70 1012.91 1013.07 1013.19 1013.30 1013.42 1013.59 1013.83 1014.13 1014.47 1014.83 1015.15 1015.42 1015.62 1015.72 1015.77 1015.78 1015.78 1015.81 1015.88 1015.98 1016.12 1016.27 1016.41 1016.50 1016.55 1016.56 1016.53 1016.48 1016.44 1016.41 1016.40 1016.41 1016.41 1016.39 1016.33 1016.23 1016.07 1015.87
1011.30 1011.58 1011.88 1012.18 1012.47 1012.72 1012.94 1013.14 1013.34 1013.56 1013.81 1014.11 1014.45 1014.82 1015.17 1015.48 1015.74 1015.93 1016.04 1016.11 1016.15 1016.19 1016.26 1016.37 1016.53 1016.71 1016.89 1017.04 1017.15 1017.21 1017.21 1017.17 1017.11 1017.04 1016.99 1016.96 1016.95 1016.94 1016.93 1016.89 1016.79 1016.65 1016.44
1011.04 1011.31 1011.60 1011.90 1012.20 1012.49 1012.77 1013.05 1013.33 1013.63 1013.96 1014.31 1014.68 1015.04 1015.39 1015.70 1015.95 1016.14 1016.28 1016.38 1016.47 1016.57 1016.70 1016.88 1017.08 1017.31 1017.53 1017.72 1017.87 1017.95 1017.96 1017.92 1017.84 1017.75 1017.66 1017.60 1017.55 1017.53 1017.50 1017.45 1017.37 1017.23 1017.04
1010.82 1011.07 1011.34 1011.63 1011.94 1012.26 1012.60 1012.94 1013.30 1013.67 1014.04 1014.43 1014.81 1015.17 1015.51 1015.81 1016.06 1016.28 1016.45 1016.61 1016.77 1016.94 1017.14 1017.38 1017.64 1017.92 1018.18 1018.42 1018.59 1018.70 1018.73 1018.70 1018.62 1018.50 1018.38 1018.27 1018.18 1018.11 1018.05 1017.99 1017.91 1017.78 1017.60
1010.67 1010.90 1011.15 1011.43 1011.74 1012.08 1012.46 1012.86 1013.27 1013.68 1014.09 1014.49 1014.87 1015.22 1015.55 1015.84 1016.12 1016.37 1016.60 1016.83 1017.07 1017.31 1017.58 1017.87 1018.18 1018.50 1018.80 1019.07 1019.28 1019.42 1019.48 1019.46 1019.37 1019.24 1019.09 1018.93 1018.79 1018.67 1018.57 1018.49 1018.40 1018.28 1018.13
1010.58 1010.80 1011.04 1011.31 1011.62 1011.99 1012.39 1012.83 1013.28 1013.72 1014.15 1014.54 1014.90 1015.24 1015.55 1015.86 1016.16 1016.45 1016.75 1017.06 1017.37 1017.68 1018.01 1018.34 1018.68 1019.01 1019.34 1019.62 1019.86 1020.04 1020.13 1020.14 1020.07 1019.93 1019.76 1019.56 1019.37 1019.20 1019.06 1018.95 1018.85 1018.74 1018.62
1010.56 1010.77 1011.00 1011.27 1011.60 1011.98 1012.42 1012.89 1013.36 1013.82 1014.24 1014.61 1014.95 1015.27 1015.57 1015.88 1016.21 1016.55 1016.92 1017.29 1017.67 1018.04 1018.41 1018.76 1019.10 1019.44 1019.76 1020.06 1020.32 1020.52 1020.66 1020.71 1020.67 1020.55 1020.37 1020.16 1019.93 1019.72 1019.54 1019.39 1019.28 1019.19 1019.10
1010.56 1010.79 1011.03 1011.31 1011.65 1012.06 1012.53 1013.02 1013.51 1013.97 1014.38 1014.73 1015.04 1015.33 1015.62 1015.93 1016.28 1016.67 1017.10 1017.53 1017.96 1018.37 1018.75 1019.10 1019.44 1019.75 1020.06 1020.36 1020.63 1020.87 1021.05 1021.16 1021.17 1021.09 1020.93 1020.72 1020.48 1020.24 1020.03 1019.86 1019.73 1019.65 1019.57
1010.56 1010.82 1011.09 1011.39 1011.76 1012.20 1012.69 1013.21 1013.71 1014.17 1014.57 1014.90 1015.18 1015.44 1015.71 1016.02 1016.39 1016.81 1017.27 1017.74 1018.20 1018.63 1019.01 1019.35 1019.66 1019.95 1020.23 1020.52 1020.81 1021.09 1021.32 1021.49 1021.57 1021.55 1021.44 1021.25 1021.01 1020.76 1020.53 1020.34 1020.20 1020.11 1020.05
1010.53 1010.84 1011.14 1011.47 1011.87 1012.34 1012.86 1013.41 1013.92 1014.39 1014.77 1015.08 1015.33 1015.57 1015.82 1016.12 1016.49 1016.93 1017.41 1017.91 1018.39 1018.82 1019.19 1019.51 1019.78 1020.03 1020.29 1020.57 1020.87 1021.18 1021.47 1021.71 1021.87 1021.92 1021.87 1021.72 1021.51 1021.26 1021.02 1020.81 1020.65 1020.54 1020.48
1010.46 1010.82 1011.15 1011.52 1011.95 1012.44 1012.99 1013.56 1014.09 1014.56 1014.94 1015.24 1015.48 1015.69 1015.92 1016.22 1016.58 1017.02 1017.51 1018.01 1018.49 1018.91 1019.27 1019.56 1019.80 1020.03 1020.27 1020.54 1020.85 1021.19 1021.53 1021.83 1022.06 1022.18 1022.19 1022.10 1021.92 1021.68 1021.44 1021.21 1021.03 1020.90 1020.81
1010.36 1010.75 1011.12 1011.50 1011.95 1012.47 1013.03 1013.61 1014.16 1014.65 1015.04 1015.33 1015.57 1015.77 1015.99 1016.27 1016.63 1017.06 1017.54 1018.04 1018.51 1018.93 1019.27 1019.54 1019.76 1019.97 1020.19 1020.45 1020.76 1021.12 1021.48 1021.83 1022.12 1022.31 1022.38 1022.33 1022.19 1021.97 1021.73 1021.49 1021.28 1021.12 1021.00
1010.23 1010.65 1011.03 1011.42 1011.88 1012.40 1012.97 1013.56 1014.13 1014.63 1015.03 1015.34 1015.58 1015.79 1016.01 1016.28 1016.63 1017.04 1017.51 1018.00 1018.46 1018.87 1019.20 1019.46 1019.67 1019.86 1020.07 1020.32 1020.63 1020.98 1021.37 1021.74 1022.06 1022.28 1022.40 1022.40 1022.28 1022.09 1021.86 1021.61 1021.38 1021.18 1021.02
Thickness
5759 5762 5763 5764 5764 5763 5763 5763 5762 5762 5762 5762 5762 5762 5762 5762 5763 5763 5763 5763 5764 5764 5764 5764 5764 5764 5764 5764 5764 5764 5764 5764 5764 5764 5763 5763 5763 5763 5763 5763 5763 5763 5764
5760 5761 5762 5762 5762 5761 5761 5760 5760 5760 5760 5759 5759 5759 5760 5760 5760 5759 5760 5760 5761 5761 5760 5761 5761 5761 5761 5761 5761 5761 5761 5761 5760 5760 5760 5760 5760 5760 5760 5760 5760 5760 5761
5759 5759 5760 5760 5760 5759 5759 5760 5760 5758 5757 5757 5756 5756 5756 5756 5756 5756 5756 5757 5757 5757 5757 5757 5757 5757 5757 5757 5757 5757 5757 5757 5756 5756 5756 5756 5756 5757 5757 5757 5757 5757 5758
5758 5757 5757 5757 5757 5757 5757 5758 5758 5755 5754 5754 5754 5754 5753 5753 5753 5753 5752 5753 5753 5754 5754 5753 5753 5754 5754 5754 5754 5753 5753 5752 5752 5752 5752 5752 5753 5753 5754 5754 5754 5754 5754
5755 5755 5755 5755 5754 5754 5754 5754 5754 5752 5752 5751 5751 5751 5751 5750 5750 5749 5749 5749 5749 5750 5750 5750 5749 5750 5750 5750 5750 5749 5749 5748 5748 5748 5748 5749 5749 5750 5750 5751 5751 5751 5751
5752 5752 5752 5751 5751 5750 5750 5750 5748 5747 5748 5749 5749 5749 5748 5747 5746 5745 5745 5745 5745 5746 5746 5746 5745 5745 5746 5746 5746 5746 5745 5744 5744 5744 5745 5745 5746 5747 5747 5748 5748 5748 5748
5749 5749 5749 5748 5748 5747 5746 5745 5744 5744 5744 5745 5746 5745 5744 5743 5742 5741 5741 5741 5741 5741 5741 5741 5741 5741 5741 5742 5742 5742 5741 5740 5740 5740 5741 5742 5742 5743 5744 5744 5744 5745 5745
5746 5746 5745 5745 5744 5743 5742 5742 5740 5740 5740 5740 5741 5740 5739 5738 5738 5737 5737 5737 5737 5737 5737 5737 5736 5737 5737 5737 5737 5737 5737 5736 5736 5736 5737 5738 5739 5740 5740 5741 5741 5741 5741
5743 5743 5742 5741 5740 5739 5739 5738 5737 5736 5736 5735 5735 5735 5734 5734 5733 5733 5733 5732 5732 5732 5733 5732 5732 5732 5732 5733 5733 5733 5732 5732 5732 5732 5733 5734 5735 5736 5736 5736 5737 5737 5737
5739 5739 5738 5737 5737 5736 5735 5734 5733 5732 5732 5731 5731 5730 5730 5729 5729 5728 5728 5728 5728 5728 5728 5728 5728 5728 5728 5728 5728 5728 5727 5727 5727 5728 5729 5730 5732 5732 5732 5732 5733 5733 5733
5734 5734 5734 5734 5733 5732 5731 5730 5729 5728 5728 5727 5727 5725 5724 5724 5724 5724 5724 5724 5723 5723 5723 5723 5723 5723 5723 5722 5722 5722 5722 5722 5722 5723 5724 5726 5727 5727 5728 5728 5728 5728 5728
5729 5730 5730 5730 5729 5728 5727 5726 5725 5724 5723 5723 5722 5721 5720 5719 5719 5719 5719 5719 5719 5718 5718 5718 5717 5717 5716 5716 5716 5717 5717 5717 5718 5718 5720 5722 5722 5723 5723 5723 5723 5723 5723
5726 5727 5727 5727 5726 5724 5723 5722 5720 5720 5719 5718 5717 5716 5715 5715 5714 5714 5713 5713 5713 5713 5713 5712 5712 5711 5711 5711 5711 5711 5712 5712 5712 5714 5715 5716 5717 5718 5718 5717 5718 5718 5718
5724 5724 5724 5724 5723 5721 5720 5718 5717 5716 5714 5714 5713 5712 5711 5710 5709 5708 5708 5708 5708 5708 5708 5707 5706 5706 5706 5705 5706 5706 5706 5707 5707 5709 5710 5711 5712 5713 5713 5713 5713 5713 5713
5720 5721 5721 5721 5719 5718 5716 5715 5713 5712 5711 5710 5709 5708 5707 5706 5705 5704 5703 5703 5703 5703 5703 5702 5701 5701 5701 5701 5701 5701 5701 5701 5702 5703 5704 5705 5707 5707 5708 5708 5708 5708 5708
5718 5718 5718 5718 5716 5714 5713 5711 5710 5709 5708 5706 5705 5704 5703 5702 5701 5700 5699 5698 5698 5698 5698 5697 5697 5696 5696 5696 5695 5695 5695 5696 5697 5698 5698 5699 5700 5701 5702 5703 5703 5703 5703
5715 5715 5715 5715 5713 5711 5709 5708 5707 5705 5704 5703 5702 5701 5700 5699 5698 5696 5695 5694 5694 5694 5693 5693 5692 5692 5691 5691 5690 5690 5690 5691 5692 5692 5693 5693 5694 5695 5696 5697 5697 5698 5698
5713 5712 5712 5712 5710 5708 5706 5705 5704 5703 5701 5700 5698 5697 5696 5695 5694 5693 5692 5690 5690 5689 5689 5688 5687 5686 5685 5685 5684 5685 5686 5686 5687 5687 5687 5688 5689 5689 5690 5691 5691 5692 5692
5710 5709 5708 5708 5706 5704 5703 5702 5700 5699 5698 5696 5695 5694 5692 5691 5690 5689 5688 5687 5685 5684 5684 5684 5682 5681 5680 5680 5680 5680 5681 5681 5682 5682 5683 5683 5683 5684 5685 5685 5686 5686 5687
5707 5706 5705 5704 5702 5700 5699 5698 5696 5694 5693 5692 5691 5690 5689 5688 5686 5685 5683 5682 5681 5680 5679 5678 5677 5677 5676 5675 5676 5675 5676 5676 5677 5677 5678 5678 5679 5679 5679 5680 5680 5680 5681
5703 5702 5701 5699 5698 5697 5695 5693 5691 5688 5687 5687 5686 5686 5685 5684 5683 5681 5679 5678 5677 5676 5674 5674 5673 5671 5670 5671 5670 5669 5670 5672 5672 5672 5673 5674 5674 5675 5675 5675 5674 5675 5675
5699 5698 5697 5696 5695 5694 5692 5690 5688 5686 5683 5682 5681 5680 5680 5679 5678 5677 5676 5674 5673 5672 5670 5670 5670 5667 5666 5666 5665 5662 5661 5663 5666 5667 5668 5669 5669 5670 5670 5670 5670 5670 5670
5695 5695 5695 5693 5692 5690 5689 5687 5685 5681 5679 5677 5675 5674 5675 5675 5674 5673 5672 5671 5670 5669 5667 5667 5666 5665 5662 5662 5662 5660 5656 5654 5657 5661 5662 5663 5664 5664 5665 5665 5666 5666 5666
5692 5693 5691 5690 5688 5687 5686 5684 5681 5676 5672 5672 5671 5670 5670 5670 5669 5669 5668 5667 5666 5665 5664 5664 5664 5663 5662 5659 5658 5658 5657 5657 5653 5653 5656 5658 5659 5660 5660 5661 5661 5661 5661
5689 5688 5687 5686 5684 5683 5682 5680 5678 5673 5670 5669 5668 5667 5665 5665 5665 5664 5663 5662 5661 5661 5661 5661 5660 5660 5660 5658 5656 5655 5654 5652 5652 5650 5648 5650 5653 5655 5656 5656 5657 5657 5657
5686 5684 5683 5681 5680 5679 5678 5676 5673 5670 5668 5665 5663 5662 5661 5660 5660 5660 5659 5658 5657 5657 5657 5657 5657 5657 5657 5656 5654 5653 5652 5651 5649 5647 5645 5644 5645 5648 5651 5652 5652 5653 5652